CW7710 Weather Reports


time (UTC)temp
C
wind
direction
speed
KPH
gust
KPH
rain 1hr
cm
rain 24hr
cm
rain mn
cm
humidity
%
barometer
mb
20260502205337 22 115 9.7 0.0 0.00 0.00 0.00 22 1016.7
20260502204340 22 356 8.0 0.0 0.00 0.00 0.00 24 1016.8
20260502203329 21 352 6.4 0.0 0.00 0.00 0.00 23 1017.2
20260502202353 22 12 3.2 0.0 0.00 0.00 0.00 23 1017.2
20260502201335 21 252 6.4 0.0 0.00 0.00 0.00 23 1017.5
20260502200339 21 290 6.4 0.0 0.00 0.00 0.00 24 1017.6
20260502195348 21 271 4.8 0.0 0.00 0.00 0.00 24 1017.5
20260502194332 21 50 6.4 0.0 0.00 0.00 0.00 24 1017.7
20260502193356 21 326 6.4 0.0 0.00 0.00 0.00 25 1017.8
20260502192339 20 302 8.0 0.0 0.00 0.00 0.00 25 1018.3
20260502191326 20 353 11.3 0.0 0.00 0.00 0.00 25 1018.4
20260502190334 20 330 6.4 0.0 0.00 0.00 0.00 27 1018.4
20260502185339 20 264 4.8 0.0 0.00 0.00 0.00 27 1018.9
20260502184342 19 356 6.4 0.0 0.00 0.00 0.00 26 1018.6
20260502183327 19 311 8.0 0.0 0.00 0.00 0.00 29 1018.5
20260502182335 19 294 6.4 0.0 0.00 0.00 0.00 29 1018.7
20260502181338 18 349 8.0 0.0 0.00 0.00 0.00 29 1019.2
20260502180325 18 303 8.0 0.0 0.00 0.00 0.00 31 1019.2
20260502170333 16 320 3.2 0.0 0.00 0.00 0.00 34 1019.3
20260502164326 15 299 3.2 0.0 0.00 0.00 0.00 38 1019.7
20260502163330 15 314 3.2 0.0 0.00 0.00 0.00 38 1019.8
20260502162337 14 357 1.6 0.0 0.00 0.00 0.00 41 1020.1
20260502161326 13 77 1.6 0.0 0.00 0.00 0.00 45 1020.5
20260502160350 12 40 3.2 0.0 0.00 0.00 0.00 47 1020.1
20260502152326 10 90 4.8 0.0 0.00 0.00 0.00 53 1020.3
20260502151329 9 117 4.8 0.0 0.00 0.00 0.00 53 1020.8
20260502150334 8 94 4.8 0.0 0.00 0.00 0.00 58 1020.8
20260502130343 1 77 3.2 0.0 0.00 0.00 0.00 77 1020.9
20260502123339 0 123 3.2 0.0 0.00 0.00 0.00 76 1020.6
20260502122327 0 91 3.2 0.0 0.00 0.00 0.00 76 1020.6
20260502121331 0 109 3.2 0.0 0.00 0.00 0.00 76 1020.5
20260502120336 0 113 4.8 0.0 0.00 0.00 0.00 75 1020.6
20260502115330 0 93 4.8 0.0 0.00 0.00 0.00 74 1020.6
20260502114334 0 73 4.8 0.0 0.00 0.00 0.00 72 1020.6
20260502113358 0 91 1.6 0.0 0.00 0.00 0.00 72 1020.1
20260502112326 1 111 3.2 0.0 0.00 0.00 0.00 72 1020.6
20260502111331 1 111 3.2 0.0 0.00 0.00 0.00 72 1020.6
20260502110355 1 110 3.2 0.0 0.00 0.00 0.00 71 1020.6
20260502105336 1 107 3.2 0.0 0.00 0.00 0.00 71 1020.5
20260502104400 1 123 3.2 0.0 0.00 0.00 0.00 70 1020.4
20260502103327 2 128 4.8 0.0 0.00 0.00 0.00 70 1020.2
20260502102331 2 117 3.2 0.0 0.00 0.00 0.00 70 1020.1
20260502101335 1 102 3.2 0.0 0.00 0.00 0.00 70 1020.4
20260502100339 1 99 3.2 0.0 0.00 0.00 0.00 70 1020.4
20260502091326 1 101 4.8 0.0 0.00 0.00 0.00 67 1020.1
20260502090330 2 92 6.4 0.0 0.00 0.00 0.00 66 1019.8
20260502071327 4 95 3.2 0.0 0.00 0.00 0.00 60 1019.5
20260502070336 5 94 1.6 0.0 0.00 0.00 0.00 59 1019.1
20260502065401 5 95 1.6 0.0 0.00 0.00 0.00 59 1019.6
20260502064344 5 95 3.2 0.0 0.00 0.00 0.00 58 1019.5
20260502063347 6 90 1.6 0.0 0.00 0.00 0.00 57 1019.2
20260502062334 6 46 6.4 0.0 0.00 0.00 0.00 57 1019.0
20260502061340 6 190 1.6 0.0 0.00 0.00 0.00 57 1019.0
20260502060344 6 116 8.0 0.0 0.00 0.00 0.00 56 1018.9
20260502055329 7 216 1.6 0.0 0.00 0.00 0.00 51 1019.3
20260502054337 8 143 9.7 0.0 0.00 0.00 0.00 49 1018.5
20260502053342 8 159 11.3 0.0 0.00 0.00 0.00 49 1018.6
20260502052347 8 129 9.7 0.0 0.00 0.00 0.00 47 1018.6
20260502051332 8 111 9.7 0.0 0.00 0.00 0.00 46 1018.7
20260502050336 9 114 11.3 0.0 0.00 0.00 0.00 45 1018.6
20260502045344 8 113 8.0 0.0 0.00 0.00 0.00 47 1018.6
20260502044327 8 121 6.4 0.0 0.00 0.00 0.00 47 1018.7
20260502043352 8 115 4.8 0.0 0.00 0.00 0.00 47 1018.6
20260502042333 9 92 4.8 0.0 0.00 0.00 0.00 44 1019.2
20260502041340 10 78 4.8 0.0 0.00 0.00 0.00 42 1019.1
20260502040323 11 58 6.4 0.0 0.00 0.00 0.00 40 1018.7
20260502035330 12 124 8.0 0.0 0.00 0.00 0.00 37 1018.8
20260502034335 12 116 8.0 0.0 0.00 0.00 0.00 36 1018.5
20260502033343 12 132 9.7 0.0 0.00 0.00 0.00 35 1018.4
20260502032327 11 134 6.4 0.0 0.00 0.00 0.00 40 1018.5
20260502031331 12 135 6.4 0.0 0.00 0.00 0.00 38 1018.1
20260502030334 13 144 4.8 0.0 0.00 0.00 0.00 38 1019.1
20260502025339 13 165 4.8 0.0 0.00 0.00 0.00 36 1017.9
20260502024326 14 121 6.4 0.0 0.00 0.00 0.00 34 1017.7
20260502023330 15 144 8.0 0.0 0.00 0.00 0.00 33 1017.4
20260502022335 16 123 9.7 0.0 0.00 0.00 0.00 31 1017.9
20260502021400 17 122 8.0 0.0 0.00 0.00 0.00 30 1017.6
20260502020347 17 115 12.9 0.0 0.00 0.00 0.00 28 1018.5
20260502015333 18 96 12.9 0.0 0.00 0.00 0.00 28 1017.7
20260502014337 18 90 12.9 0.0 0.00 0.00 0.00 27 1017.4
20260502013341 18 107 14.5 0.0 0.00 0.00 0.00 26 1017.4
20260502012329 19 93 16.1 0.0 0.00 0.00 0.00 26 1017.5
20260502011333 20 96 12.9 0.0 0.00 0.00 0.00 25 1018.1
20260502010337 20 100 11.3 0.0 0.00 0.00 0.00 22 1019.0
20260502005402 20 106 11.3 0.0 0.00 0.00 0.00 21 1017.5
20260502004331 20 127 12.9 0.0 0.00 0.00 0.00 20 1017.5
20260502003335 21 152 8.0 0.0 0.00 0.00 0.00 20 1018.4
20260502002340 21 121 9.7 0.0 0.00 0.00 0.00 20 1017.6
20260502001344 20 88 9.7 0.0 0.00 0.00 0.00 21 1017.6
20260502000332 21 89 6.4 0.0 0.00 0.00 0.00 18 1017.7
20260501235335 21 120 8.0 0.0 0.00 0.00 0.00 18 1017.7
20260501234337 21 116 8.0 0.0 0.00 0.00 0.00 18 1017.8
20260501233323 21 136 6.4 0.0 0.00 0.00 0.00 19 1017.8
20260501232333 21 132 4.8 0.0 0.00 0.00 0.00 18 1018.3
20260501231357 21 168 6.4 0.0 0.00 0.00 0.00 17 1018.5
20260501230339 21 176 6.4 0.0 0.00 0.00 0.00 17 1018.7
20260501225402 21 225 8.0 0.0 0.00 0.00 0.00 18 1018.7
20260501224345 21 115 9.7 0.0 0.00 0.00 0.00 19 1018.8
20260501223349 21 190 8.0 0.0 0.00 0.00 0.00 20 1018.9
20260501222336 21 193 6.4 0.0 0.00 0.00 0.00 19 1019.0
20260501221400 21 209 8.0 0.0 0.00 0.00 0.00 20 1019.2
20260501220326 21 190 8.0 0.0 0.00 0.00 0.00 21 1019.2
20260501215351 21 165 6.4 0.0 0.00 0.00 0.00 22 1019.3
20260501214338 20 135 8.0 0.0 0.00 0.00 0.00 22 1019.5
20260501213341 20 171 8.0 0.0 0.00 0.00 0.00 22 1019.7
20260501212344 20 129 6.4 0.0 0.00 0.00 0.00 24 1020.1
20260501211328 20 245 8.0 0.0 0.00 0.00 0.00 23 1020.0
20260501210336 20 165 6.4 0.0 0.00 0.00 0.00 23 1020.0